Location: ??
(36.7391°N, 127.5151°E)
Time: 10:45:36
(UTC+00:00)

STARLINK-1083 - Pass Details

Date: 07 June 2020
Orbit: 549 x 551 km, 53.0° (Epoch: 14 July)

Event Time Altitude Azimuth Distance (km) Brightness Sun altitude
Rises 11:10:48 0° 307° (NW) 2,772 10.2 -4.9°
Reaches altitude 10° 11:13:07 10° 301° (WNW) 1,877 8.3 -5.3°
Maximum altitude 11:17:12 44° 229° (SW) 794 4.6 -6.0°
Drops below altitude 10° 11:21:17 10° 156° (SSE) 1,882 5.8 -6.6°
Enters shadow 11:22:18 - 153° (SSE) 2,269 6.2 -6.8°
